View from above orbital plane
|
View from above satellite
|
Ground track
|
The orbit data is extracted from the following two-line orbital elements,
1 28352U 04021A 21022.90368952 .00000177 00000-0 12298-3 0 9996
2 28352 71.0043 257.2795 0018120 274.7976 85.1076 14.11699175856480
Epoch (UTC): | 22 January 2021 21:41:18 |
Eccentricity: | 0.0018120 |
inclination: | 71.0043° |
perigee height: | 840 km |
apogee height: | 866 km |
right ascension of ascending node: | 257.2795° |
argument of perigee: | 274.7976° |
revolutions per day: | 14.11699175 |
mean anomaly at epoch: | 85.1076° |
orbit number at epoch: | 85648 |
The dashed part of the orbit path shows where the satellite is in the earth's shadow,
|
|